Flag for Argentina Weather past 2 weeks in La Rioja, La Rioja, Argentina

Now
52 °F

Clear.


Feels Like: 47 °F
Forecast: 39 / 51 °F
Wind: 15 mph from South

Location: Cordoba Aerodrome

Current Time: Jul 22, 2014 at 9:42:27 PM

Latest Report: Jul 22, 2014 at 9:00 PM


Visibility: 10 mi

Pressure: 30.09 "Hg

Humidity: 41%

Dew point: 28 °F

Location of La RiojaLocation

Historic Weather in La Rioja — Graph

°F

La Rioja temperature yesterday

Maximum temperature yesterday: 75 °F (at 3:00 PM)
Minimum temperature yesterday: 39 °F (at 7:00 AM)
Average temperature yesterday: 57 °F

Past Weeks' High & Low Weather Summary

 TemperatureHumidityPressure
High79 °F (Jul 19, 4:00 PM)100% (Jul 10, 10:00 PM)30.42 "Hg (Jul 10, 10:00 PM)
Low30 °F (Jul 8, 5:00 AM)20% (Jul 7, 1:00 PM)29.74 "Hg (Jul 14, 5:00 PM)
Average54 °F65%30.14 "Hg
* Reported Jul 7 1:00 PM — Jul 22 1:00 PM, La Rioja, Weather by CustomWeather, © 2014

Note: Actual official high and low records may vary slightly from our data, if they occured in-between our weather recording intervals... More about our weather records

Advertising

La Rioja weather history for previous 24 hours

 ConditionsComfort  
Time TempWeatherWind HumidityBarometerVisibility
1:00 PM
Jul 22
63 °FScattered clouds.18 mph42%29.98 "HgN/A
12:00 PM63 °FScattered clouds.21 mph45%29.98 "HgN/A
11:00 AM61 °FScattered clouds.15 mph42%29.98 "HgN/A
10:00 AM57 °FScattered clouds.14 mph55%29.98 "HgN/A
9:00 AM52 °FScattered clouds.12 mph72%29.95 "HgN/A
8:00 AM52 °FScattered clouds.15 mph72%29.95 "HgN/A
7:00 AM50 °FPassing clouds.9 mph76%29.89 "HgN/A
6:00 AM52 °FClear.7 mph72%29.89 "Hg10 mi
5:00 AM55 °FClear.10 mph63%29.89 "Hg10 mi
4:00 AM57 °FClear.8 mph55%29.89 "Hg10 mi
3:00 AM54 °FClear.3 mph67%29.92 "Hg10 mi
2:00 AM54 °FPassing clouds.6 mph67%29.95 "HgN/A
1:00 AM55 °FClear.6 mph59%29.95 "Hg10 mi
12:00 AM54 °FClear.7 mph63%29.95 "Hg10 mi
11:00 PM
Jul 21
54 °FClear.7 mph63%29.98 "Hg10 mi
10:00 PM55 °FClear.6 mph63%29.95 "Hg10 mi
9:00 PM59 °FClear.6 mph51%29.95 "Hg10 mi
Weather by CustomWeather, © 2014

See weather overviewHow to use our weather pages